GW4003 Weather Reports


time (UTC)temp
C
wind
direction
speed
KPH
gust
KPH
rain 1hr
cm
rain 24hr
cm
rain mn
cm
humidity
%
barometer
mb
20260906220323 32 28 6.4 12.9 0.00 0.00 0.00 32 1016.2
20260906215820 32 136 6.4 8.0 0.00 0.00 0.00 31 1016.3
20260906215316 32 10 1.6 14.5 0.00 0.00 0.00 32 1016.4
20260906214812 32 41 8.0 14.5 0.00 0.00 0.00 32 1016.4
20260906214309 32 271 3.2 14.5 0.00 0.00 0.00 32 1016.5
20260906213805 32 42 11.3 16.1 0.00 0.00 0.00 31 1016.6
20260906213301 32 325 4.8 17.7 0.00 0.00 0.00 32 1016.7
20260906212757 32 49 9.7 17.7 0.00 0.00 0.00 32 1016.9
20260906212253 32 15 1.6 17.7 0.00 0.00 0.00 32 1017.0
20260906211749 32 360 0.0 17.7 0.00 0.00 0.00 32 1017.2
20260906211246 31 63 3.2 20.9 0.00 0.00 0.00 33 1017.1
20260906210742 31 70 8.0 20.9 0.00 0.00 0.00 32 1017.3
20260906210239 32 56 1.6 12.9 0.00 0.00 0.00 32 1017.4
20260906205735 31 350 3.2 14.5 0.00 0.00 0.00 33 1017.4
20260906205231 31 54 1.6 20.9 0.00 0.00 0.00 32 1017.5
20260906204728 32 53 16.1 19.3 0.00 0.00 0.00 32 1017.6
20260906204224 32 63 8.0 19.3 0.00 0.00 0.00 32 1017.7
20260906203720 31 39 9.7 12.9 0.00 0.00 0.00 34 1017.8
20260906203215 31 290 0.0 14.5 0.00 0.00 0.00 36 1017.8
20260906202712 31 137 6.4 16.1 0.00 0.00 0.00 35 1018.0
20260906202208 31 17 8.0 16.1 0.00 0.00 0.00 35 1018.0
20260906201704 30 266 1.6 14.5 0.00 0.00 0.00 38 1018.0
20260906201200 31 352 3.2 14.5 0.00 0.00 0.00 37 1018.0
20260906200657 30 16 3.2 14.5 0.00 0.00 0.00 37 1018.1
20260906200156 30 16 4.8 16.1 0.00 0.00 0.00 37 1018.2
20260906195653 30 44 8.0 19.3 0.00 0.00 0.00 38 1018.2
20260906195148 30 188 4.8 19.3 0.00 0.00 0.00 37 1018.2
20260906194645 30 42 9.7 12.9 0.00 0.00 0.00 37 1018.2
20260906194142 30 5 1.6 14.5 0.00 0.00 0.00 36 1018.3
20260906193637 30 32 8.0 17.7 0.00 0.00 0.00 34 1018.4
20260906193134 30 346 3.2 17.7 0.00 0.00 0.00 36 1018.5
20260906192630 30 91 6.4 14.5 0.00 0.00 0.00 33 1018.6
20260906192127 30 33 9.7 14.5 0.00 0.00 0.00 31 1018.7
20260906191623 30 115 1.6 17.7 0.00 0.00 0.00 33 1018.7
20260906191119 29 61 3.2 17.7 0.00 0.00 0.00 37 1018.8
20260906190615 29 136 6.4 12.9 0.00 0.00 0.00 36 1018.8
20260906190111 29 183 4.8 12.9 0.00 0.00 0.00 37 1018.9
20260906185608 28 182 4.8 12.9 0.00 0.00 0.00 38 1019.1
20260906185105 29 92 11.3 12.9 0.00 0.00 0.00 39 1019.2
20260906184601 28 197 3.2 11.3 0.00 0.00 0.00 41 1019.2
20260906184057 28 205 1.6 11.3 0.00 0.00 0.00 42 1019.4
20260906183553 28 167 6.4 11.3 0.00 0.00 0.00 41 1019.6
20260906183050 28 89 4.8 11.3 0.00 0.00 0.00 40 1019.8
20260906182546 27 61 6.4 9.7 0.00 0.00 0.00 42 1019.9
20260906182042 27 172 8.0 9.7 0.00 0.00 0.00 40 1019.9
20260906181539 28 104 3.2 12.9 0.00 0.00 0.00 40 1020.1
20260906181035 28 119 8.0 11.3 0.00 0.00 0.00 40 1020.1
20260906180532 28 100 4.8 11.3 0.00 0.00 0.00 40 1020.2
20260906180028 28 63 1.6 11.3 0.00 0.00 0.00 38 1020.3
20260906175524 28 35 3.2 9.7 0.00 0.00 0.00 39 1020.3
20260906175020 26 31 3.2 9.7 0.00 0.00 0.00 42 1020.4
20260906174516 27 132 6.4 6.4 0.00 0.00 0.00 42 1020.5
20260906174012 26 141 3.2 6.4 0.00 0.00 0.00 45 1020.6
20260906173508 26 202 0.0 9.7 0.00 0.00 0.00 45 1020.8
20260906173004 26 15 0.0 9.7 0.00 0.00 0.00 48 1020.8
20260906172501 26 136 0.0 6.4 0.00 0.00 0.00 48 1020.8
20260906171957 26 193 1.6 6.4 0.00 0.00 0.00 47 1021.0
20260906171453 26 44 1.6 6.4 0.00 0.00 0.00 48 1021.1
20260906170949 26 246 0.0 6.4 0.00 0.00 0.00 48 1021.1
20260906170446 25 307 1.6 4.8 0.00 0.00 0.00 51 1021.3
20260906165942 25 57 1.6 4.8 0.00 0.00 0.00 50 1021.5
20260906165438 26 48 0.0 4.8 0.00 0.00 0.00 50 1021.6
20260906164934 25 61 1.6 6.4 0.00 0.00 0.00 49 1021.6
20260906164431 25 11 4.8 6.4 0.00 0.00 0.00 51 1021.6
20260906163927 25 327 0.0 4.8 0.00 0.00 0.00 51 1021.6
20260906163423 25 360 0.0 9.7 0.00 0.00 0.00 51 1021.6
20260906162919 25 5 1.6 9.7 0.00 0.00 0.00 51 1021.5
20260906162415 25 343 1.6 6.4 0.00 0.00 0.00 54 1021.5
20260906161912 24 304 1.6 6.4 0.00 0.00 0.00 57 1021.4
20260906161408 23 151 0.0 4.8 0.00 0.00 0.00 57 1021.4
20260906160904 23 53 1.6 6.4 0.00 0.00 0.00 56 1021.4
20260906160401 24 360 0.0 8.0 0.00 0.00 0.00 56 1021.5
20260906155856 24 51 3.2 8.0 0.00 0.00 0.00 57 1021.4
20260906155353 23 5 1.6 4.8 0.00 0.00 0.00 58 1021.4
20260906154849 23 324 1.6 8.0 0.00 0.00 0.00 58 1021.4
20260906154345 23 38 3.2 8.0 0.00 0.00 0.00 59 1021.4
20260906153841 23 32 3.2 11.3 0.00 0.00 0.00 57 1021.5
20260906153338 23 343 3.2 11.3 0.00 0.00 0.00 57 1021.6
20260906152834 23 330 0.0 8.0 0.00 0.00 0.00 59 1021.6
20260906152330 23 17 4.8 8.0 0.00 0.00 0.00 58 1021.6
20260906151826 23 311 1.6 6.4 0.00 0.00 0.00 60 1021.6
20260906151323 23 299 4.8 8.0 0.00 0.00 0.00 59 1021.6
20260906150820 23 333 1.6 8.0 0.00 0.00 0.00 59 1021.6
20260906150316 23 284 6.4 8.0 0.00 0.00 0.00 62 1021.6
20260906145812 22 307 3.2 6.4 0.00 0.00 0.00 63 1021.5
20260906145309 22 308 3.2 8.0 0.00 0.00 0.00 64 1021.3
20260906144805 22 296 1.6 8.0 0.00 0.00 0.00 65 1021.5
20260906144301 21 19 1.6 8.0 0.00 0.00 0.00 66 1021.5
20260906143758 21 281 6.4 8.0 0.00 0.00 0.00 68 1021.4
20260906143254 20 82 1.6 6.4 0.00 0.00 0.00 70 1021.5
20260906142750 20 294 0.0 6.4 0.00 0.00 0.00 71 1021.4
20260906142247 20 302 0.0 3.2 0.00 0.00 0.00 71 1021.3
20260906141743 19 311 1.6 6.4 0.00 0.00 0.00 72 1021.3
20260906141240 19 240 3.2 6.4 0.00 0.00 0.00 72 1021.4
20260906140736 18 232 3.2 6.4 0.00 0.00 0.00 72 1021.5
20260906140232 18 281 1.6 6.4 0.00 0.00 0.00 72 1021.5
20260906135729 18 242 3.2 6.4 0.00 0.00 0.00 72 1021.5
20260906135225 18 268 1.6 6.4 0.00 0.00 0.00 72 1021.5
20260906134721 18 258 3.2 9.7 0.00 0.00 0.00 73 1021.5
20260906134217 18 308 1.6 9.7 0.00 0.00 0.00 73 1021.4
20260906133714 18 270 4.8 8.0 0.00 0.00 0.00 73 1021.4
20260906133211 18 309 3.2 4.8 0.00 0.00 0.00 74 1021.3
20260906132707 18 295 1.6 3.2 0.00 0.00 0.00 74 1021.3
20260906132204 18 281 1.6 4.8 0.00 0.00 0.00 75 1021.3
20260906131700 18 303 4.8 6.4 0.00 0.00 0.00 75 1021.1
20260906131156 18 294 0.0 6.4 0.00 0.00 0.00 76 1021.1
20260906130652 18 309 1.6 3.2 0.00 0.00 0.00 76 1021.1
20260906130149 18 289 0.0 4.8 0.00 0.00 0.00 76 1021.0
20260906125645 18 289 1.6 4.8 0.00 0.00 0.00 76 1020.9
20260906125141 18 277 3.2 3.2 0.00 0.00 0.00 76 1020.8
20260906124637 18 292 3.2 3.2 0.00 0.00 0.00 76 1020.9
20260906124133 18 309 1.6 3.2 0.00 0.00 0.00 76 1020.9
20260906123630 18 0 0.0 3.2 0.00 0.00 0.00 76 1021.0
20260906123126 18 9 1.6 3.2 0.00 0.00 0.00 76 1021.0
20260906122622 18 9 1.6 3.2 0.00 0.00 0.00 76 1021.1
20260906122118 18 0 0.0 3.2 0.00 0.00 0.00 75 1021.0
20260906121615 18 5 1.6 3.2 0.00 0.00 0.00 75 1020.9
20260906121111 18 317 0.0 4.8 0.00 0.00 0.00 75 1021.0
20260906120607 18 316 1.6 4.8 0.00 0.00 0.00 74 1021.0
20260906115559 18 324 1.6 4.8 0.00 0.00 0.00 74 1021.0
20260906115055 18 0 0.0 6.4 0.00 0.00 0.00 73 1020.9
20260906114552 18 345 3.2 6.4 0.00 0.00 0.00 73 1020.8
20260906114049 18 22 3.2 6.4 0.00 0.00 0.00 72 1020.9
20260906113544 18 18 4.8 6.4 0.00 0.00 0.00 71 1021.0
20260906113041 18 343 1.6 8.0 0.00 0.00 0.00 71 1021.0
20260906112537 18 315 0.0 8.0 0.00 0.00 0.00 71 1021.0
20260906112036 19 44 0.0 6.4 0.00 0.00 0.00 70 1020.9
20260906111532 19 352 1.6 4.8 0.00 0.00 0.00 69 1020.8
20260906111029 19 323 1.6 4.8 0.00 0.00 0.00 69 1020.8
20260906110525 19 339 0.0 6.4 0.00 0.00 0.00 68 1020.8
20260906110021 19 308 0.0 9.7 0.00 0.00 0.00 67 1020.6
20260906105518 19 313 8.0 9.7 0.00 0.00 0.00 66 1020.6
20260906105014 19 326 6.4 11.3 0.00 0.00 0.00 65 1020.5
20260906104509 20 348 6.4 11.3 0.00 0.00 0.00 65 1020.4
20260906104006 20 311 6.4 9.7 0.00 0.00 0.00 64 1020.3
20260906103502 20 301 3.2 9.7 0.00 0.00 0.00 63 1020.4
20260906102959 20 308 4.8 8.0 0.00 0.00 0.00 61 1020.4
20260906102455 20 309 3.2 6.4 0.00 0.00 0.00 60 1020.4
20260906101951 20 308 1.6 6.4 0.00 0.00 0.00 59 1020.4
20260906101447 20 321 3.2 6.4 0.00 0.00 0.00 58 1020.3
20260906100943 20 329 0.0 4.8 0.00 0.00 0.00 57 1020.2
20260906100440 21 321 0.0 4.8 0.00 0.00 0.00 57 1020.3
20260906095940 21 311 1.6 6.4 0.00 0.00 0.00 56 1020.4
20260906095435 21 312 1.6 6.4 0.00 0.00 0.00 56 1020.5
20260906094931 21 9 1.6 4.8 0.00 0.00 0.00 55 1020.4
20260906094428 21 10 0.0 4.8 0.00 0.00 0.00 55 1020.4
20260906093924 21 295 0.0 4.8 0.00 0.00 0.00 54 1020.4
20260906093421 21 348 0.0 4.8 0.00 0.00 0.00 54 1020.5
20260906092917 21 340 0.0 6.4 0.00 0.00 0.00 53 1020.4
20260906092413 21 336 4.8 6.4 0.00 0.00 0.00 52 1020.3
20260906091909 21 338 4.8 6.4 0.00 0.00 0.00 51 1020.3
20260906091405 21 325 1.6 6.4 0.00 0.00 0.00 50 1020.3
20260906090902 22 304 4.8 6.4 0.00 0.00 0.00 49 1020.2
20260906090359 22 309 3.2 6.4 0.00 0.00 0.00 49 1020.1
20260906085855 22 320 0.0 3.2 0.00 0.00 0.00 48 1020.0
20260906085352 22 11 1.6 8.0 0.00 0.00 0.00 48 1020.0
20260906084848 22 0 0.0 8.0 0.00 0.00 0.00 48 1020.0
20260906084344 22 5 1.6 4.8 0.00 0.00 0.00 48 1020.1
20260906083841 22 352 0.0 3.2 0.00 0.00 0.00 48 1019.9
20260906083338 22 152 0.0 4.8 0.00 0.00 0.00 48 1019.9
20260906082834 22 101 0.0 4.8 0.00 0.00 0.00 48 1020.0
20260906082331 22 107 3.2 8.0 0.00 0.00 0.00 47 1019.9
20260906081827 22 186 8.0 8.0 0.00 0.00 0.00 47 1020.0
20260906081323 22 88 4.8 4.8 0.00 0.00 0.00 46 1020.0
20260906080820 23 66 3.2 4.8 0.00 0.00 0.00 46 1019.9
20260906080316 23 188 0.0 6.4 0.00 0.00 0.00 46 1019.9
20260906075813 23 188 3.2 8.0 0.00 0.00 0.00 46 1019.9
20260906075309 23 156 4.8 8.0 0.00 0.00 0.00 46 1019.8
20260906074805 23 184 3.2 6.4 0.00 0.00 0.00 44 1019.6
20260906074301 23 291 3.2 6.4 0.00 0.00 0.00 43 1019.6
20260906073758 23 322 1.6 12.9 0.00 0.00 0.00 42 1019.4
20260906073254 23 348 4.8 14.5 0.00 0.00 0.00 43 1019.3
20260906072750 23 346 6.4 14.5 0.00 0.00 0.00 43 1019.3
20260906072246 23 335 8.0 12.9 0.00 0.00 0.00 43 1019.4
20260906071742 23 323 3.2 12.9 0.00 0.00 0.00 43 1019.3
20260906071239 23 312 4.8 11.3 0.00 0.00 0.00 44 1019.3
20260906070735 23 317 3.2 9.7 0.00 0.00 0.00 44 1019.4
20260906070231 23 290 4.8 11.3 0.00 0.00 0.00 44 1019.5
20260906065728 23 303 4.8 11.3 0.00 0.00 0.00 44 1019.5
20260906065225 23 279 4.8 8.0 0.00 0.00 0.00 44 1019.5
20260906064721 24 275 6.4 9.7 0.00 0.00 0.00 44 1019.7
20260906064217 24 296 3.2 9.7 0.00 0.00 0.00 44 1019.8
20260906063713 24 284 3.2 9.7 0.00 0.00 0.00 43 1019.8
20260906063209 24 288 3.2 9.7 0.00 0.00 0.00 43 1019.9
20260906062705 25 277 4.8 6.4 0.00 0.00 0.00 42 1019.9
20260906062202 25 250 4.8 6.4 0.00 0.00 0.00 41 1019.9
20260906061658 25 239 4.8 8.0 0.00 0.00 0.00 40 1020.0
20260906061154 25 246 6.4 8.0 0.00 0.00 0.00 40 1020.0
20260906060654 25 210 4.8 8.0 0.00 0.00 0.00 39 1020.1
20260906060150 25 210 1.6 11.3 0.00 0.00 0.00 39 1020.2
20260906055647 25 213 6.4 11.3 0.00 0.00 0.00 38 1020.1
20260906055143 25 237 3.2 6.4 0.00 0.00 0.00 37 1020.1
20260906054639 25 242 3.2 3.2 0.00 0.00 0.00 37 1020.0
20260906054136 25 0 0.0 3.2 0.00 0.00 0.00 36 1019.9
20260906053632 25 38 1.6 3.2 0.00 0.00 0.00 36 1020.0
20260906053128 25 313 0.0 3.2 0.00 0.00 0.00 36 1020.2
20260906052624 25 308 1.6 3.2 0.00 0.00 0.00 36 1020.3
20260906052120 26 296 0.0 3.2 0.00 0.00 0.00 36 1020.4
20260906051617 26 277 0.0 6.4 0.00 0.00 0.00 36 1020.5
20260906051113 26 284 1.6 6.4 0.00 0.00 0.00 36 1020.7
20260906050609 26 309 1.6 3.2 0.00 0.00 0.00 36 1020.7
20260906050106 26 295 1.6 3.2 0.00 0.00 0.00 36 1020.9
20260906045602 26 261 1.6 3.2 0.00 0.00 0.00 35 1021.0
20260906045058 26 205 0.0 3.2 0.00 0.00 0.00 35 1021.1
20260906044555 26 205 0.0 12.9 0.00 0.00 0.00 35 1021.1
20260906044051 25 171 1.6 14.5 0.00 0.00 0.00 35 1021.0
20260906043547 25 184 4.8 14.5 0.00 0.00 0.00 35 1020.8
20260906043042 26 196 9.7 11.3 0.00 0.00 0.00 36 1020.7
20260906042538 26 196 6.4 8.0 0.00 0.00 0.00 34 1020.4
20260906042035 26 73 1.6 1.6 0.00 0.00 0.00 34 1020.1
20260906041531 26 0 0.0 3.2 0.00 0.00 0.00 33 1019.7
20260906041028 26 44 1.6 6.4 0.00 0.00 0.00 33 1019.7
20260906040524 26 22 3.2 6.4 0.00 0.00 0.00 33 1019.7
20260906040020 26 21 1.6 4.8 0.00 0.00 0.00 32 1019.6
20260906035517 26 352 3.2 4.8 0.00 0.00 0.00 32 1019.6
20260906035013 26 360 0.0 4.8 0.00 0.00 0.00 32 1019.6
20260906034509 26 17 3.2 4.8 0.00 0.00 0.00 32 1019.5
20260906034006 26 22 1.6 4.8 0.00 0.00 0.00 32 1019.4
20260906033502 26 41 1.6 4.8 0.00 0.00 0.00 32 1019.5
20260906032958 27 329 1.6 4.8 0.00 0.00 0.00 32 1019.4
20260906032454 27 348 1.6 4.8 0.00 0.00 0.00 32 1019.4
20260906031951 27 302 1.6 4.8 0.00 0.00 0.00 32 1019.2
20260906031447 27 82 1.6 3.2 0.00 0.00 0.00 31 1019.2
20260906030943 27 83 1.6 4.8 0.00 0.00 0.00 31 1019.2
20260906030439 27 74 1.6 6.4 0.00 0.00 0.00 31 1019.0
20260906025935 27 95 3.2 6.4 0.00 0.00 0.00 30 1018.8
20260906025432 27 184 3.2 4.8 0.00 0.00 0.00 30 1018.6
20260906024928 27 207 1.6 3.2 0.00 0.00 0.00 30 1018.3
20260906024424 27 0 0.0 6.4 0.00 0.00 0.00 30 1018.2
20260906023920 27 327 0.0 6.4 0.00 0.00 0.00 30 1018.2
20260906023417 27 303 0.0 6.4 0.00 0.00 0.00 30 1018.2
20260906022913 28 323 3.2 8.0 0.00 0.00 0.00 29 1018.2
20260906022409 28 281 3.2 8.0 0.00 0.00 0.00 29 1018.2
20260906021905 28 346 1.6 12.9 0.00 0.00 0.00 29 1018.2
20260906021402 28 252 1.6 12.9 0.00 0.00 0.00 29 1018.1
20260906020858 28 310 0.0 8.0 0.00 0.00 0.00 29 1018.1
20260906020354 28 327 3.2 9.7 0.00 0.00 0.00 28 1018.0
20260906015851 28 311 6.4 11.3 0.00 0.00 0.00 28 1017.9
20260906015347 28 283 4.8 14.5 0.00 0.00 0.00 28 1017.9
20260906014844 28 305 4.8 16.1 0.00 0.00 0.00 28 1017.9
20260906014340 28 325 12.9 16.1 0.00 0.00 0.00 27 1017.8
20260906013837 29 336 6.4 14.5 0.00 0.00 0.00 27 1017.7
20260906013333 29 296 3.2 17.7 0.00 0.00 0.00 27 1017.7
20260906012829 29 344 8.0 19.3 0.00 0.00 0.00 27 1017.7
20260906012326 30 305 8.0 27.4 0.00 0.00 0.00 26 1017.7
20260906011822 30 306 14.5 27.4 0.00 0.00 0.00 26 1017.8
20260906011318 30 304 12.9 20.9 0.00 0.00 0.00 26 1017.7
20260906010815 30 48 16.1 20.9 0.00 0.00 0.00 25 1017.8
20260906010311 31 306 6.4 20.9 0.00 0.00 0.00 24 1017.7
20260906005807 31 294 6.4 20.9 0.00 0.00 0.00 24 1017.7
20260906005306 31 311 8.0 16.1 0.00 0.00 0.00 24 1017.8
20260906004759 31 275 1.6 16.1 0.00 0.00 0.00 24 1017.7
20260906004255 31 299 12.9 17.7 0.00 0.00 0.00 23 1017.7
20260906003752 31 320 4.8 22.5 0.00 0.00 0.00 23 1017.7
20260906003248 31 302 6.4 22.5 0.00 0.00 0.00 23 1017.7
20260906002745 31 360 17.7 20.9 0.00 0.00 0.00 23 1017.7
20260906002241 32 302 4.8 9.7 0.00 0.00 0.00 23 1017.7
20260906001737 32 287 3.2 4.8 0.00 0.00 0.00 23 1017.7
20260906001234 32 294 1.6 3.2 0.00 0.00 0.00 22 1017.6
20260906000730 32 242 3.2 4.8 0.00 0.00 0.00 21 1017.6
20260906000227 32 298 1.6 4.8 0.00 0.00 0.00 22 1017.6
20260905235723 32 327 3.2 4.8 0.00 0.00 0.00 21 1017.5
20260905235219 32 318 0.0 4.8 0.00 0.00 0.00 22 1017.5
20260905234716 32 238 1.6 3.2 0.00 0.00 0.00 21 1017.5
20260905234212 32 194 0.0 6.4 0.00 0.00 0.00 21 1017.5
20260905233708 32 234 1.6 6.4 0.00 0.00 0.00 21 1017.6
20260905233205 32 232 1.6 4.8 0.00 0.00 0.00 23 1017.5
20260905232701 32 201 1.6 4.8 0.00 0.00 0.00 20 1017.5
20260905232158 32 254 4.8 4.8 0.00 0.00 0.00 21 1017.5
20260905231654 32 296 3.2 6.4 0.00 0.00 0.00 22 1017.5
20260905231150 32 300 0.0 6.4 0.00 0.00 0.00 22 1017.5
20260905230646 32 299 0.0 4.8 0.00 0.00 0.00 22 1017.5
20260905230142 32 141 3.2 4.8 0.00 0.00 0.00 20 1017.5
20260905225639 32 190 3.2 4.8 0.00 0.00 0.00 21 1017.4
20260905225136 32 194 3.2 6.4 0.00 0.00 0.00 20 1017.4
20260905224632 32 188 3.2 6.4 0.00 0.00 0.00 20 1017.5
20260905224128 32 188 6.4 9.7 0.00 0.00 0.00 20 1017.4
20260905223624 32 179 3.2 9.7 0.00 0.00 0.00 20 1017.5
20260905223120 32 175 1.6 9.7 0.00 0.00 0.00 20 1017.5
20260905222617 32 122 1.6 14.5 0.00 0.00 0.00 20 1017.5
20260905222112 32 119 6.4 14.5 0.00 0.00 0.00 20 1017.5
20260905221608 32 195 1.6 16.1 0.00 0.00 0.00 20 1017.5
20260905221105 33 123 8.0 16.1 0.00 0.00 0.00 20 1017.6